Location: St. Louis
(38.6270°N, 90.1994°W)
Time: 22:30:03
(UTC-05:00)

ISS - Pass Details

Date: 12 November 2013
Orbit: 401 x 404 km, 51.6° (Epoch: 29 July)

Event Time Altitude Azimuth Distance (km) Brightness Sun altitude
Rises 13:54:15 0° 295° (WNW) 2,342 0.7 26.1°
Reaches altitude 10° 13:56:44 10° 276° (W) 1,480 0.0 25.8°
Drops below altitude 10° 14:01:34 10° 182° (S) 1,479 0.6 25.3°
Enters shadow 14:36:23 -68° 126° (SE) 12,249 3.9 20.9°
Exits shadow 15:04:36 -55° 334° (NNW) 10,990 3.7 16.9°
Maximum altitude 05:02:45 26° 133° (SE) 828 -1.2 -19.1°
